TimeCDT,TemperatureF,Dew PointF,Humidity,Sea Level PressureIn,VisibilityMPH,Wind Direction,Wind SpeedMPH,Gust SpeedMPH,PrecipitationIn,Events,Conditions,WindDirDegrees,DateUTC
12:14 AM,64.4,35.6,34,29.69,10.0,SW,15.0,21.9,N/A,,Clear,220,2012-10-04 05:14:00
12:34 AM,60.8,39.2,45,29.71,7.0,West,17.3,27.6,N/A,,Clear,260,2012-10-04 05:34:00
12:54 AM,55.4,39.2,54,29.72,7.0,West,16.1,24.2,N/A,,Clear,270,2012-10-04 05:54:00
1:14 AM,51.8,41.0,67,29.73,7.0,WNW,15.0,21.9,N/A,,Clear,300,2012-10-04 06:14:00
1:34 AM,48.2,42.8,82,29.77,10.0,NW,23.0,31.1,N/A,,Clear,310,2012-10-04 06:34:00
1:54 AM,48.2,42.8,82,29.79,10.0,NW,21.9,34.5,N/A,,Mostly Cloudy,310,2012-10-04 06:54:00
2:14 AM,48.2,41.0,76,29.81,10.0,NW,23.0,31.1,N/A,,Overcast,310,2012-10-04 07:14:00
2:34 AM,46.4,39.2,76,29.83,10.0,NW,23.0,34.5,N/A,,Overcast,310,2012-10-04 07:34:00
2:54 AM,46.4,39.2,76,29.83,10.0,NW,19.6,35.7,N/A,,Overcast,320,2012-10-04 07:54:00
3:14 AM,46.4,39.2,76,29.84,10.0,NW,19.6,34.5,N/A,,Overcast,320,2012-10-04 08:14:00
3:34 AM,44.6,39.2,81,29.86,10.0,NW,18.4,35.7,N/A,,Overcast,320,2012-10-04 08:34:00
3:54 AM,44.6,39.2,81,29.88,10.0,NW,21.9,35.7,N/A,,Overcast,320,2012-10-04 08:54:00
4:14 AM,44.6,39.2,81,29.88,10.0,NW,25.3,31.1,N/A,,Overcast,320,2012-10-04 09:14:00
4:34 AM,44.6,39.2,81,29.90,10.0,NW,18.4,34.5,N/A,,Overcast,320,2012-10-04 09:34:00
4:54 AM,44.6,39.2,81,29.91,10.0,NW,23.0,40.3,N/A,,Overcast,320,2012-10-04 09:54:00
5:14 AM,42.8,35.6,76,29.92,10.0,NW,19.6,33.4,N/A,,Overcast,320,2012-10-04 10:14:00
5:34 AM,41.0,35.6,81,29.93,10.0,NNW,21.9,32.2,N/A,,Overcast,330,2012-10-04 10:34:00
5:54 AM,41.0,35.6,81,29.94,10.0,NNW,20.7,31.1,N/A,,Overcast,330,2012-10-04 10:54:00
6:14 AM,41.0,35.6,81,29.96,10.0,NNW,16.1,25.3,N/A,,Overcast,330,2012-10-04 11:14:00
6:34 AM,39.2,33.8,81,29.96,10.0,NNW,19.6,27.6,N/A,,Overcast,330,2012-10-04 11:34:00
6:54 AM,39.2,33.8,81,29.98,10.0,NW,20.7,28.8,N/A,,Overcast,320,2012-10-04 11:54:00
7:14 AM,39.2,33.8,81,29.98,10.0,NNW,24.2,34.5,N/A,,Overcast,340,2012-10-04 12:14:00
7:39 AM,39.2,35.6,87,30.00,10.0,NNW,24.2,35.7,N/A,,Overcast,340,2012-10-04 12:39:00
7:54 AM,39.2,35.6,87,30.01,7.0,NNW,24.2,32.2,N/A,,Overcast,340,2012-10-04 12:54:00
8:14 AM,37.4,35.6,93,30.02,7.0,NNW,21.9,33.4,N/A,,Overcast,340,2012-10-04 13:14:00
8:34 AM,39.2,35.6,87,30.03,10.0,NNW,19.6,31.1,N/A,,Overcast,330,2012-10-04 13:34:00
8:54 AM,39.2,33.8,81,30.04,10.0,NNW,20.7,33.4,N/A,,Overcast,340,2012-10-04 13:54:00
9:14 AM,39.2,33.8,81,30.05,10.0,NNW,24.2,38.0,N/A,,Overcast,340,2012-10-04 14:14:00
9:34 AM,39.2,33.8,81,30.06,10.0,NNW,19.6,34.5,N/A,,Overcast,340,2012-10-04 14:34:00
9:54 AM,39.2,33.8,81,30.07,10.0,North,27.6,33.4,N/A,,Overcast,350,2012-10-04 14:54:00
10:14 AM,41.0,33.8,76,30.07,10.0,NNW,25.3,38.0,N/A,,Overcast,340,2012-10-04 15:14:00
10:34 AM,41.0,33.8,76,30.07,10.0,NNW,27.6,36.8,N/A,,Overcast,340,2012-10-04 15:34:00
10:54 AM,42.8,33.8,70,30.08,10.0,North,25.3,39.1,N/A,,Overcast,350,2012-10-04 15:54:00
11:14 AM,42.8,33.8,70,30.09,10.0,NNW,31.1,40.3,N/A,,Overcast,340,2012-10-04 16:14:00
11:34 AM,42.8,33.8,70,30.10,10.0,North,27.6,34.5,N/A,,Overcast,350,2012-10-04 16:34:00
11:54 AM,42.8,32.0,66,30.11,10.0,NNW,27.6,39.1,N/A,,Overcast,340,2012-10-04 16:54:00
12:14 PM,42.8,33.8,70,30.12,10.0,NNW,26.5,36.8,N/A,,Overcast,330,2012-10-04 17:14:00
12:34 PM,42.8,33.8,70,30.12,10.0,NNW,23.0,33.4,N/A,,Overcast,340,2012-10-04 17:34:00
12:54 PM,44.6,32.0,61,30.13,10.0,NNW,21.9,34.5,N/A,,Overcast,340,2012-10-04 17:54:00
1:14 PM,44.6,32.0,61,30.14,10.0,North,17.3,35.7,N/A,,Overcast,350,2012-10-04 18:14:00
1:33 PM,44.6,32.0,61,30.13,10.0,North,-9999.0,-,N/A,,Overcast,0,2012-10-04 18:33:00
1:54 PM,44.6,33.8,66,30.15,10.0,NNW,19.6,35.7,N/A,,Overcast,330,2012-10-04 18:54:00
2:14 PM,44.6,30.2,57,30.15,10.0,North,28.8,38.0,N/A,,Overcast,350,2012-10-04 19:14:00
2:34 PM,46.4,30.2,53,30.16,10.0,North,18.4,32.2,N/A,,Overcast,350,2012-10-04 19:34:00
2:54 PM,46.4,32.0,57,30.16,10.0,NNW,20.7,28.8,N/A,,Overcast,330,2012-10-04 19:54:00
3:14 PM,44.6,33.8,66,30.16,10.0,NNW,19.6,28.8,N/A,,Overcast,340,2012-10-04 20:14:00
3:34 PM,44.6,33.8,66,30.17,10.0,NW,18.4,28.8,N/A,,Overcast,320,2012-10-04 20:34:00
3:54 PM,46.4,33.8,62,30.17,10.0,NNW,20.7,31.1,N/A,,Overcast,340,2012-10-04 20:54:00
4:14 PM,44.6,32.0,61,30.18,10.0,NNW,16.1,28.8,N/A,,Overcast,340,2012-10-04 21:14:00
4:34 PM,44.6,33.8,66,30.18,10.0,NNW,17.3,31.1,N/A,,Overcast,340,2012-10-04 21:34:00
4:54 PM,44.6,33.8,66,30.18,10.0,North,24.2,32.2,N/A,,Overcast,350,2012-10-04 21:54:00
5:14 PM,46.4,33.8,62,30.18,10.0,North,-9999.0,-,N/A,,Overcast,0,2012-10-04 22:14:00
5:34 PM,44.6,32.0,61,30.19,10.0,NNW,23.0,31.1,N/A,,Overcast,340,2012-10-04 22:34:00
5:54 PM,44.6,32.0,61,30.19,10.0,North,16.1,21.9,N/A,,Overcast,350,2012-10-04 22:54:00
6:14 PM,44.6,32.0,61,30.19,10.0,North,20.7,27.6,N/A,,Overcast,350,2012-10-04 23:14:00
6:34 PM,44.6,32.0,61,30.20,10.0,North,13.8,24.2,N/A,,Overcast,350,2012-10-04 23:34:00
6:54 PM,44.6,32.0,61,30.20,10.0,North,15.0,23.0,N/A,,Overcast,360,2012-10-04 23:54:00
7:14 PM,44.6,33.8,66,30.21,10.0,NNW,10.4,19.6,N/A,,Overcast,340,2012-10-05 00:14:00
7:34 PM,44.6,33.8,66,30.21,10.0,North,16.1,24.2,N/A,,Overcast,350,2012-10-05 00:34:00
7:54 PM,42.8,33.8,70,30.21,10.0,NNW,11.5,18.4,N/A,,Overcast,340,2012-10-05 00:54:00
8:14 PM,44.6,33.8,66,30.22,10.0,NNW,16.1,20.7,N/A,,Overcast,340,2012-10-05 01:14:00
8:34 PM,42.8,32.0,66,30.22,10.0,North,13.8,27.6,N/A,,Overcast,350,2012-10-05 01:34:00
8:54 PM,42.8,32.0,66,30.23,10.0,NNW,15.0,20.7,N/A,,Overcast,340,2012-10-05 01:54:00
9:15 PM,42.8,32.0,66,30.23,10.0,NNW,12.7,25.3,N/A,,Overcast,340,2012-10-05 02:15:00
9:34 PM,42.8,33.8,70,30.23,10.0,NNW,11.5,19.6,N/A,,Overcast,330,2012-10-05 02:34:00
9:54 PM,42.8,33.8,70,30.24,10.0,NNW,15.0,20.7,N/A,,Overcast,330,2012-10-05 02:54:00
10:15 PM,41.0,35.6,81,30.24,10.0,NNW,10.4,17.3,N/A,,Overcast,330,2012-10-05 03:15:00
10:34 PM,42.8,33.8,70,30.24,10.0,North,20.7,25.3,N/A,,Overcast,350,2012-10-05 03:34:00
10:54 PM,42.8,33.8,70,30.24,10.0,NNW,15.0,20.7,N/A,,Overcast,340,2012-10-05 03:54:00
11:15 PM,42.8,33.8,70,30.23,10.0,NNW,12.7,20.7,N/A,,Overcast,340,2012-10-05 04:15:00
11:34 PM,42.8,33.8,70,30.23,10.0,NW,10.4,-,N/A,,Overcast,320,2012-10-05 04:34:00
11:54 PM,-9999,-9999,N/A,30.43,10.0,North,15.0,-,N/A,,Overcast,350,2012-10-05 04:54:00